Location: Coopersdale
(40.3556°N, 78.9372°W)
Time: 03:21:20
(UTC+00:00)

Tiros 1 despin weight - Pass Details

Date: 23 January 2021
Orbit: 593 x 642 km, 48.2° (Epoch: 02 March)

Event Time Altitude Azimuth Distance (km) Brightness Sun altitude
Rises 18:04:43 0° 193° (SSW) 2,895 ? 29.8°
Reaches altitude 10° 18:07:44 10° 173° (S) 1,983 ? 29.7°
Maximum altitude 18:10:38 17° 133° (SE) 1,579 ? 29.6°
Drops below altitude 10° 18:13:31 10° 93° (E) 1,970 ? 29.4°
Sets 18:16:30 0° 73° (ENE) 2,867 ? 29.3°
